Date,TemperatureHighF,TemperatureAvgF,TemperatureLowF,DewpointHighF,DewpointAvgF,DewpointLowF,HumidityHigh,HumidityAvg,HumidityLow,PressureMaxIn,PressureMinIn,WindSpeedMaxMPH,WindSpeedAvgMPH,GustSpeedMaxMPH,PrecipitationSumIn
2013-1-1,27,15,2,-100,-100,-100,0,0,100,0.00,40.00,0,-999,0,0.00
2013-1-2,18,12,2,-100,-100,-100,0,0,100,0.00,40.00,0,-999,0,0.00
2013-1-3,37,15,2,-100,-100,-100,0,0,100,0.00,40.00,0,-999,0,0.00
2013-1-4,34,22,9,-100,-100,-100,0,0,100,0.00,40.00,0,-999,0,0.00
2013-1-5,28,16,7,-100,-100,-100,0,0,100,0.00,40.00,0,-999,0,0.00
2013-1-6,44,27,7,-100,-100,-100,0,0,100,0.00,40.00,0,-999,0,0.00
2013-1-7,36,28,14,-100,-100,-100,0,0,100,0.00,40.00,0,-999,0,0.00
2013-1-8,31,28,13,-100,-100,-100,0,0,100,0.00,40.00,0,-999,0,0.00
2013-1-9,49,40,30,-100,-100,-100,0,0,100,0.00,40.00,0,-999,0,0.00
2013-1-10,43,32,10,-100,-100,-100,0,0,100,0.00,40.00,0,-999,0,0.00
2013-1-11,10,0,-5,-100,-100,-100,0,0,100,0.00,40.00,0,-999,0,0.00
2013-1-12,2,-2,-11,-100,-100,-100,0,0,100,0.00,40.00,0,-999,0,0.00
2013-1-13,3,-7,-12,-100,-100,-100,0,0,100,0.00,40.00,0,-999,0,0.00
2013-1-14,8,0,-15,-100,-100,-100,0,0,100,0.00,40.00,0,-999,0,0.00
2013-1-15,33,25,8,-100,-100,-100,0,0,100,0.00,40.00,0,-999,0,0.00
2013-1-16,37,28,18,-100,-100,-100,0,0,100,0.00,40.00,0,-999,0,0.00
2013-1-17,41,29,14,-100,-100,-100,0,0,100,0.00,40.00,0,-999,0,0.00
2013-1-18,44,37,32,-100,-100,-100,0,0,100,0.00,40.00,0,-999,0,0.00
2013-1-19,33,28,14,-100,-100,-100,0,0,100,0.00,40.00,0,-999,0,0.00
2013-1-20,32,20,12,-100,-100,-100,0,0,100,0.00,40.00,0,-999,0,0.00
2013-1-21,40,28,14,-100,-100,-100,0,0,100,0.00,40.00,0,-999,0,0.00
2013-1-22,41,28,12,-100,-100,-100,0,0,100,0.00,40.00,0,-999,0,0.00
2013-1-23,49,38,24,-100,-100,-100,0,0,100,0.00,40.00,0,-999,0,0.00
2013-1-24,44,37,17,-100,-100,-100,0,0,100,0.00,40.00,0,-999,0,0.00
2013-1-25,42,33,26,-100,-100,-100,0,0,100,0.00,40.00,0,-999,0,0.00
2013-1-26,42,33,25,-100,-100,-100,0,0,100,0.00,40.00,0,-999,0,0.00
2013-1-27,28,23,19,-100,-100,-100,0,0,100,0.00,40.00,0,-999,0,0.00
2013-1-28,19,14,-1,-100,-100,-100,0,0,100,0.00,40.00,0,-999,0,0.00
2013-1-29,16,3,-7,-100,-100,-100,0,0,100,0.00,40.00,0,-999,0,0.00
2013-1-30,24,15,-6,-100,-100,-100,0,0,100,0.00,40.00,0,-999,0,0.00
2013-1-31,27,21,12,-100,-100,-100,0,0,100,0.00,40.00,0,-999,0,0.00